[[{"header":{"parameterUnit":"m.s-1","parameterCategory":1,"la1":30.2991,"la2":30.254,"lo1":-89.0895,"lo2":-89.0444,"dy":0.0017,"dx":0.0017,"nx":28,"ny":28,"refTime":"2025-02-12T03:00:00:Z","depth":0,"parameterNumber":2,"parameterNumberName":"U-component_of_WINDS"},"data":[0,0,0,0,0,0,0,0,0,0,0,0,0,0,0,0,0,0,0,0,0,0,0,0,0,0,0,0,0,0,0,0,0,0,0,0,0,0,0,0,0,0,0,0,0,0,0,0,0,0,0,0,0,0,0,0,0,0,-3.6706,-3.6707,0,-3.678,-3.6781,-3.6781,-3.6695,-3.6692,-3.6689,-3.6686,-3.6761,-3.6766,-3.6771,0,0,0,0,0,0,0,0,0,0,0,0,0,-3.649,-3.6494,-3.6706,-3.6707,-3.6708,-3.678,-3.6781,-3.6782,-3.6696,-3.6692,-3.6688,-3.6684,-3.676,-3.6766,-3.6772,0,0,0,0,0,0,0,0,0,0,0,0,0,-3.6576,-3.6496,-3.6706,-3.6674,-3.6672,-3.6779,-3.6781,-3.6782,-3.6697,-3.6692,-3.6687,-3.6682,-3.6758,-3.6765,-3.6772,-3.6915,0,0,-3.6795,-3.6799,0,0,0,0,0,0,0,0,-3.6571,-3.6584,-3.6678,-3.6676,-3.6674,-3.6723,-3.6732,-3.6827,-3.6698,-3.6687,-3.6686,-3.668,-3.6753,-3.676,-3.6785,-3.6919,-3.6922,-3.6796,-3.6801,-3.6804,-3.6806,0,0,0,0,0,0,0,-3.6565,-3.658,-3.6735,-3.6679,-3.6677,-3.6655,-3.6662,-3.675,-3.6746,-3.6688,-3.6682,-3.6692,-3.6751,-3.6778,-3.6786,-3.6923,-3.6796,-3.6803,-3.6807,-3.681,-3.7178,-3.7183,0,0,0,0,0,0,-3.6563,-3.6576,-3.6733,-3.6737,-3.661,-3.6663,-3.6671,-3.6712,-3.6745,-3.6745,-3.6696,-3.6687,-3.6767,-3.6777,-3.6788,-3.6958,-3.6804,-3.6811,-3.6815,-3.7173,-3.7179,-3.7185,0,0,0,0,0,0,-3.6559,-3.6578,-3.673,-3.6655,-3.6673,-3.6672,-3.6719,-3.6716,-3.6743,-3.6751,-3.675,-3.6724,-3.6764,-3.6778,-3.6884,-3.6959,-3.6814,-3.6821,-3.7167,-3.7175,-3.7182,-3.7299,0,0,0,0,0,0,-3.6553,-3.6577,-3.6632,-3.6657,-3.6677,-3.6826,-3.6724,-3.6721,-3.6756,-3.6746,-3.6777,-3.6778,-3.6761,-3.6874,-3.6892,-3.6967,-3.6827,-3.716,-3.717,-3.718,-3.7289,-3.731,-3.7328,0,0,0,0,0,-3.6546,-3.6662,-3.6635,-3.6654,-3.6746,-3.683,-3.6842,-3.682,-3.6763,-3.6818,-3.6822,-3.6777,-3.6948,-3.6885,-3.6905,-3.6984,-3.7155,-3.7167,-3.7179,-3.728,-3.7306,-3.7328,0,0,0,0,0,0,-3.6646,-3.6665,-3.6635,-3.6763,-3.6796,-3.6816,-3.6884,-3.6849,-3.6898,-3.6887,-3.6858,-3.6866,-3.6979,-3.6992,-3.6922,-3.7124,-3.7042,-3.7058,-3.7112,-3.7137,-3.7156,-3.7152,-3.6833,0,0,0,0,0,-3.6683,-3.675,-3.6763,-3.6874,-3.6892,-3.6886,-3.6922,-3.6902,-3.6935,-3.6948,-3.6961,-3.6994,-3.7055,-3.7096,-3.7153,-3.7289,-3.7295,-3.7353,-3.7373,-3.7389,-3.7404,-3.7477,-3.7503,-3.7224,-3.7224,-3.7223,0,0,-3.676,-3.6779,-3.6823,-3.6895,-3.6918,-3.6988,-3.6898,-3.6976,-3.7028,-3.696,-3.7062,-3.7072,-3.7107,-3.723,-3.7284,-3.7243,-3.7482,-3.7404,-3.7417,-3.7423,-3.7492,-3.7518,-3.7542,-3.7232,-3.723,-3.7229,0,0,-3.6938,-3.6958,-3.7053,-3.7078,-3.7114,-3.7108,-3.7131,-3.7156,-3.716,-3.7262,-3.7212,-3.7273,-3.7379,-3.7406,-3.7434,-3.7619,-3.7579,-3.7638,-3.7743,-3.7815,-3.7837,-3.7856,-3.7923,-3.7948,-3.7653,-3.7653,-3.7653,0,-3.703,-3.7134,-3.7107,-3.7189,-3.7222,-3.7163,-3.7259,-3.7284,-3.7337,-3.7361,-3.7314,-3.7445,-3.7465,-3.7593,-3.7638,-3.7662,-3.7687,-3.7636,-3.7836,-3.7855,-3.7873,-3.7936,-3.7961,-3.766,-3.7659,-3.7659,-3.7658,0,-3.7245,-3.7318,-3.7391,-3.7443,-3.7484,-3.7573,-3.7559,-3.7603,-3.7579,-3.7579,-3.7683,-3.7703,-3.7763,-3.7791,-3.7769,-3.7916,-3.789,-3.784,-3.7758,-3.7907,-3.7966,-3.799,-3.767,-3.7668,-3.7666,-3.7664,0,0,-3.7491,-3.7525,-3.7553,-3.7576,-3.761,-3.7666,-3.7751,-3.7809,-3.7848,-3.7885,-3.7957,-3.8047,-3.8,-3.8032,-3.8012,-3.8074,-3.822,-3.8016,-3.8017,-3.8055,-3.8384,-3.8423,-3.8452,-3.8193,-3.8197,-3.8201,-3.8382,0,-3.7669,-3.7818,-3.7796,-3.7939,-3.8006,-3.7949,-3.8024,-3.8052,-3.8054,-3.811,-3.811,-3.8175,-3.8109,-3.8128,-3.8187,-3.819,-3.8287,-3.8177,-3.8259,-3.8263,-3.8255,-3.8482,-3.8524,-3.8694,-3.8404,-3.8408,-3.8411,0,-3.7898,-3.7944,-3.8095,-3.8117,-3.8145,-3.8212,-3.8263,-3.8318,-3.8349,-3.8345,-3.838,-3.8347,-3.8432,-3.8347,-3.8463,-3.8389,-3.8421,-3.8428,-3.8434,-3.8442,-3.8348,-3.8499,-3.8747,-3.8773,-3.8447,-3.8444,-3.8442,0,-3.8064,-3.8163,-3.8265,-3.8286,-3.8316,-3.8364,-3.8379,-3.8404,-3.8441,-3.8485,-3.8508,-3.8562,-3.8591,-3.8633,-3.8616,-3.8555,-3.8736,-3.8649,-3.8736,-3.8737,-3.8779,-3.8777,-3.9037,-3.8797,-3.8796,-3.8796,-3.8795,0,-3.8267,-3.8362,-3.834,-3.8404,-3.8507,-3.848,-3.8583,-3.859,-3.8614,-3.8677,-3.863,-3.8691,-3.8664,-3.8722,-3.8709,-3.8808,-3.8821,-3.8821,-3.8817,-3.8826,-3.8827,-3.8848,-3.8837,-3.8802,-3.8801,-3.88,-3.8798,0,-3.8471,-3.846,-3.8568,-3.8587,-3.8593,-3.8669,-3.8684,-3.8743,-3.8739,-3.8821,-3.8838,-3.8833,-3.8899,-3.8885,-3.8958,-3.8949,-3.9073,-3.9053,-3.9063,-3.9059,-3.9147,-3.914,-3.9433,-3.947,-3.9203,-3.9206,-3.9208,0,-3.8602,-3.8674,-3.8699,-3.8738,-3.8756,-3.882,-3.8856,-3.8831,-3.8871,-3.8911,-3.8965,-3.9027,-3.9075,-3.9183,-3.9186,-3.9241,-3.9223,-3.9322,-3.9231,-3.9239,-3.9226,-3.9223,-3.923,-3.9341,-3.9344,-3.9346,-3.9348,0,-3.8837,-3.8828,-3.8882,-3.8935,-3.898,-3.902,-3.9056,-3.9091,-3.9068,-3.9115,-3.9182,-3.922,-3.9293,-3.9356,-3.9406,-3.942,-3.9381,-3.9376,-3.9399,-3.9411,-3.9415,-3.9415,-3.9114,-3.937,-3.9368,-3.9367,-3.9365,-3.9364,-3.901,-3.907,-3.9098,-3.916,-3.9184,-3.9218,-3.9274,-3.9277,-3.9333,-3.9391,-3.9372,-3.9449,-3.9476,-3.954,-3.956,-3.9619,-3.9582,-3.9616,-3.9625,-3.9634,-3.9645,-3.9403,-3.9628,-3.9627,-3.9627,-3.9626,-3.9626,0,-3.9243,-3.9258,-3.9315,-3.9366,-3.9415,-3.9372,-3.9409,-3.9453,-3.9521,-3.955,-3.9598,-3.9675,-3.9734,-3.9741,-3.9797,-3.9843,-3.9826,-3.9859,-3.9856,-3.986,-3.9674,-3.9649,-3.9871,-3.9871,-3.9871,-3.9871,-3.9871,-3.9871,-3.9371,-3.9472,-3.9465,-3.9577,-3.959,-3.9665,-3.969,-3.9721,-3.9744,-3.9832,-3.9881,-3.9884,-3.9904,-3.9961,-4.0013,-4.0013,-4.0037,-4.0076,-4.007,-3.9897,-3.9873,-3.985,-3.9826,-4.0081,-4.0082,-4.0251,-4.0252,-4.0253]},{"header":{"parameterUnit":"m.s-1","parameterCategory":1,"la1":30.2991,"la2":30.254,"lo1":-89.0895,"lo2":-89.0444,"dy":0.0017,"dx":0.0017,"nx":28,"ny":28,"refTime":"2025-02-12T03:00:00:Z","depth":0,"parameterNumber":3,"parameterNumberName":"V-component_of_WINDS"},"data":[0,0,0,0,0,0,0,0,0,0,0,0,0,0,0,0,0,0,0,0,0,0,0,0,0,0,0,0,0,0,0,0,0,0,0,0,0,0,0,0,0,0,0,0,0,0,0,0,0,0,0,0,0,0,0,0,0,0,-6.8184,-6.8185,0,-6.8288,-6.8289,-6.829,-6.8216,-6.8213,-6.821,-6.8207,-6.8308,-6.8314,-6.8319,0,0,0,0,0,0,0,0,0,0,0,0,0,-6.7915,-6.792,-6.8184,-6.8185,-6.8186,-6.8288,-6.8289,-6.829,-6.8217,-6.8213,-6.8209,-6.8205,-6.8306,-6.8313,-6.832,0,0,0,0,0,0,0,0,0,0,0,0,0,-6.8027,-6.7922,-6.8183,-6.8162,-6.8161,-6.8287,-6.8289,-6.8291,-6.8218,-6.8213,-6.8208,-6.8203,-6.8304,-6.8312,-6.8321,-6.8472,0,0,-6.8347,-6.8351,0,0,0,0,0,0,0,0,-6.802,-6.8037,-6.8164,-6.8164,-6.8163,-6.8234,-6.8231,-6.8351,-6.8219,-6.8196,-6.8207,-6.8201,-6.8287,-6.8297,-6.8327,-6.8477,-6.8481,-6.8348,-6.8353,-6.8357,-6.8359,0,0,0,0,0,0,0,-6.8013,-6.8032,-6.8225,-6.8166,-6.8165,-6.8145,-6.8155,-6.8254,-6.8268,-6.8198,-6.8193,-6.8206,-6.8286,-6.8319,-6.8329,-6.8483,-6.8348,-6.8355,-6.8361,-6.8364,-6.876,-6.8765,0,0,0,0,0,0,-6.8008,-6.8026,-6.8221,-6.8228,-6.8078,-6.8154,-6.8166,-6.8216,-6.8266,-6.8269,-6.821,-6.8202,-6.8306,-6.8319,-6.8332,-6.8512,-6.8357,-6.8365,-6.837,-6.8755,-6.8761,-6.8767,0,0,0,0,0,0,-6.8002,-6.8026,-6.8217,-6.8125,-6.8148,-6.8164,-6.8221,-6.8221,-6.8254,-6.8276,-6.8277,-6.8242,-6.8303,-6.832,-6.8438,-6.8514,-6.8369,-6.8377,-6.8749,-6.8757,-6.8764,-6.8873,0,0,0,0,0,0,-6.7995,-6.8025,-6.8084,-6.8127,-6.8154,-6.8324,-6.8226,-6.8226,-6.8269,-6.826,-6.8306,-6.8309,-6.8301,-6.8425,-6.8446,-6.8523,-6.8383,-6.8742,-6.8752,-6.8762,-6.8863,-6.8884,-6.8902,0,0,0,0,0,-6.7986,-6.811,-6.8087,-6.8111,-6.8228,-6.8328,-6.8343,-6.8332,-6.8276,-6.8335,-6.8348,-6.8307,-6.8502,-6.8438,-6.8461,-6.8542,-6.8737,-6.8749,-6.8761,-6.8854,-6.888,-6.8901,0,0,0,0,0,0,-6.8073,-6.8115,-6.8091,-6.8233,-6.8278,-6.8316,-6.839,-6.836,-6.8421,-6.8409,-6.8391,-6.8402,-6.8526,-6.8545,-6.8473,-6.869,-6.861,-6.8628,-6.8673,-6.8698,-6.8717,-6.871,-6.8391,0,0,0,0,0,-6.8109,-6.8189,-6.822,-6.8342,-6.8366,-6.8374,-6.8417,-6.8405,-6.845,-6.8468,-6.8491,-6.8535,-6.8605,-6.8652,-6.8719,-6.8865,-6.8873,-6.8931,-6.8951,-6.8967,-6.8982,-6.9059,-6.9085,-6.8807,-6.8806,-6.8806,0,0,-6.8184,-6.8217,-6.8268,-6.8361,-6.8394,-6.8475,-6.8391,-6.848,-6.8539,-6.8481,-6.8595,-6.8613,-6.866,-6.8792,-6.8851,-6.8812,-6.906,-6.8982,-6.8995,-6.9001,-6.9074,-6.91,-6.9123,-6.8815,-6.8813,-6.8812,0,0,-6.8362,-6.8396,-6.8501,-6.8536,-6.8588,-6.8592,-6.8617,-6.866,-6.867,-6.8783,-6.8741,-6.881,-6.8933,-6.8968,-6.9002,-6.9192,-6.9155,-6.9213,-6.9316,-6.9391,-6.9413,-6.9432,-6.9498,-6.9523,-6.9228,-6.9229,-6.9229,0,-6.8448,-6.8571,-6.8558,-6.8651,-6.8692,-6.8644,-6.8749,-6.8783,-6.8854,-6.8882,-6.8837,-6.899,-6.9018,-6.9157,-6.9204,-6.9233,-6.926,-6.9208,-6.9411,-6.943,-6.9448,-6.9511,-6.9536,-6.9235,-6.9234,-6.9234,-6.9233,0,-6.8673,-6.8758,-6.8836,-6.8907,-6.8957,-6.9055,-6.9055,-6.9107,-6.909,-6.9098,-6.9213,-6.9246,-6.9317,-6.9349,-6.9333,-6.9486,-6.946,-6.9413,-6.9333,-6.9481,-6.954,-6.9564,-6.9245,-6.9242,-6.924,-6.9239,0,0,-6.891,-6.8972,-6.9001,-6.9032,-6.9085,-6.915,-6.9244,-6.9316,-6.936,-6.9409,-6.9487,-6.9592,-6.9549,-6.9587,-6.9574,-6.964,-6.9787,-6.9585,-6.9586,-6.9621,-6.9955,-6.999,-7.0018,-6.9763,-6.9768,-6.9771,-6.9951,0,-6.9091,-6.9259,-6.9249,-6.9406,-6.9483,-6.9438,-6.952,-6.956,-6.957,-6.9635,-6.9645,-6.9719,-6.9657,-6.968,-6.9743,-6.9756,-6.9854,-6.9743,-6.9834,-6.9837,-6.9823,-7.0049,-7.0086,-7.0254,-6.9974,-6.9978,-6.9981,0,-6.9324,-6.9383,-6.9548,-6.9588,-6.962,-6.9695,-6.9758,-6.9822,-6.9865,-6.9867,-6.991,-6.9886,-6.9979,-6.9897,-7.0024,-6.9949,-6.9985,-6.9996,-7.0002,-7.001,-6.9918,-7.0062,-7.0308,-7.0333,-7.0017,-7.0014,-7.0012,0,-6.948,-6.96,-6.9714,-6.9741,-6.9791,-6.9845,-6.9867,-6.9906,-6.9949,-7.0004,-7.0032,-7.0096,-7.0132,-7.0181,-7.0174,-7.0115,-7.0303,-7.022,-7.0306,-7.0306,-7.0348,-7.0345,-7.0602,-7.0372,-7.0372,-7.0371,-7.037,0,-6.9682,-6.9784,-6.9784,-6.9854,-6.9966,-6.9953,-7.0064,-7.0081,-7.0116,-7.0186,-7.015,-7.0217,-7.0204,-7.0269,-7.0264,-7.0369,-7.0386,-7.0389,-7.0386,-7.0392,-7.0392,-7.0415,-7.0403,-7.0378,-7.0376,-7.0375,-7.0374,0,-6.9875,-6.9879,-7.0,-7.0038,-7.0049,-7.013,-7.0161,-7.0226,-7.0232,-7.0322,-7.0342,-7.0352,-7.0427,-7.0425,-7.051,-7.0506,-7.0635,-7.0619,-7.0621,-7.0618,-7.0704,-7.0696,-7.0985,-7.1021,-7.0768,-7.077,-7.0772,0,-7.0004,-7.0082,-7.0128,-7.0173,-7.02,-7.0274,-7.0318,-7.0307,-7.0354,-7.0408,-7.0466,-7.0538,-7.0596,-7.0718,-7.0731,-7.0795,-7.078,-7.0877,-7.0789,-7.0792,-7.0781,-7.0776,-7.0783,-7.0894,-7.0897,-7.0899,-7.0901,0,-7.0232,-7.023,-7.0296,-7.0362,-7.0416,-7.0467,-7.0514,-7.0553,-7.0547,-7.0601,-7.0678,-7.0723,-7.081,-7.0881,-7.0943,-7.0964,-7.0931,-7.0928,-7.0951,-7.0958,-7.0956,-7.0958,-7.0668,-7.0922,-7.092,-7.0918,-7.0917,-7.0916,-7.0397,-7.0463,-7.0506,-7.058,-7.0614,-7.0658,-7.0721,-7.0735,-7.08,-7.0872,-7.086,-7.0947,-7.0986,-7.1065,-7.1092,-7.1157,-7.1123,-7.1157,-7.1165,-7.1173,-7.1183,-7.0946,-7.1168,-7.1168,-7.1167,-7.1167,-7.1166,0,-7.0622,-7.0647,-7.0715,-7.0783,-7.084,-7.0806,-7.0855,-7.0905,-7.0982,-7.1022,-7.108,-7.1168,-7.1236,-7.1255,-7.132,-7.1369,-7.1355,-7.1386,-7.1383,-7.1388,-7.121,-7.1184,-7.1396,-7.1396,-7.1396,-7.1396,-7.1396,-7.1396,-7.0746,-7.0857,-7.086,-7.0986,-7.1009,-7.1095,-7.1126,-7.1166,-7.1198,-7.1298,-7.1356,-7.1368,-7.1398,-7.1465,-7.1526,-7.1529,-7.1555,-7.1592,-7.1589,-7.1423,-7.14,-7.1378,-7.1353,-7.1598,-7.1598,-7.1761,-7.1762,-7.1763]}]]